[[{"header":{"parameterUnit":"m.s-1","parameterCategory":1,"la1":30.2992,"la2":30.254,"lo1":-89.0895,"lo2":-89.0443,"dy":0.0025,"dx":0.0025,"nx":19,"ny":19,"refTime":"2026-03-12T03:00:00:Z","depth":0,"parameterNumber":2,"parameterNumberName":"U-component_of_WINDS"},"data":[0,0,0,3.6707,3.6704,3.6545,3.6544,3.6381,3.638,0,0,0,0,0,0,0,0,0,0,0,3.6778,3.6778,3.6707,3.6704,3.6545,3.6544,3.6381,3.638,0,0,0,0,0,0,0,0,0,0,0,3.6779,3.6778,3.6778,3.6704,3.6545,3.6544,3.6381,3.6487,0,0,0,0,0,0,0,0,0,0,3.6635,3.6724,3.6778,3.6778,3.6703,3.6546,3.6544,3.6491,3.648,3.647,0,3.6467,0,3.6421,3.6371,3.6371,0,0,0,3.6686,3.6734,3.6669,3.6778,3.6702,3.6546,3.6612,3.6485,3.6472,3.6456,3.6464,3.6457,3.6418,3.637,3.637,3.6367,3.6368,0,0,3.6695,3.6763,3.6678,3.6662,3.6689,3.6617,3.6607,3.6477,3.6491,3.6463,3.6452,3.6415,3.6369,3.6369,3.6366,3.6367,0,0,0,3.6732,3.677,3.6707,3.667,3.6638,3.6613,3.6601,3.6496,3.647,3.645,3.6413,3.6369,3.6367,3.6365,3.6367,3.6473,0,0,0,3.6737,3.6791,3.6712,3.6752,3.6641,3.6565,3.6625,3.6479,3.6462,3.6414,3.6369,3.6366,3.6364,3.6366,3.6467,3.6511,0,0,0,3.6781,3.6796,3.6781,3.6756,3.669,3.6566,3.6531,3.6474,3.6441,3.6371,3.6366,3.6363,3.6366,3.6463,3.6504,3.6529,0,0,0,3.6847,3.6879,3.6784,3.6806,3.6692,3.6633,3.6531,3.6484,3.6437,3.6368,3.6364,3.6366,3.6462,3.6499,3.6525,3.6563,3.6585,0,0,3.6925,3.6891,3.6898,3.6808,3.6783,3.6652,3.6641,3.6534,3.6466,3.6404,3.6403,3.6469,3.6503,3.6528,3.6688,3.6706,0,0,0,3.6945,3.6951,3.693,3.6887,3.6806,3.6739,3.6626,3.6586,3.6529,3.6448,3.6484,3.6502,3.6514,3.6529,3.6544,3.655,3.6377,3.6376,3.6376,3.7153,3.7063,3.7068,3.6959,3.692,3.6802,3.6761,3.6687,3.6608,3.6619,3.6599,3.6707,3.6727,3.6738,3.6745,3.6613,3.6613,3.6613,3.6614,3.7258,3.7251,3.7146,3.7113,3.7018,3.6989,3.6877,3.6822,3.6781,3.6714,3.672,3.6655,3.6761,3.6762,3.6621,3.662,3.6619,3.6618,3.6617,3.7383,3.7364,3.7315,3.7243,3.7198,3.7087,3.7052,3.6967,3.6886,3.6893,3.6862,3.686,3.6847,3.6884,3.6885,3.6885,3.6885,3.6886,3.6886,3.7532,3.7473,3.7454,3.7369,3.733,3.7268,3.715,3.7109,3.7042,3.6983,3.6982,3.6902,3.6788,3.6761,3.6891,3.689,3.689,3.6889,3.6889,3.767,3.7625,3.7596,3.7557,3.745,3.7411,3.7303,3.7227,3.7181,3.7166,3.7085,3.7015,3.6974,3.6961,3.6937,3.7105,3.7105,3.7105,3.7105,3.7775,3.7746,3.7696,3.7639,3.7573,3.7472,3.7442,3.735,3.7249,3.7215,3.7178,3.714,3.7131,3.7095,3.7079,3.7056,3.725,3.725,3.725,3.7854,3.7815,3.7805,3.7705,3.7615,3.754,3.7508,3.7446,3.7322,3.7254,3.7185,3.7179,3.7117,3.7102,3.7033,3.701,3.6965,0,0]},{"header":{"parameterUnit":"m.s-1","parameterCategory":1,"la1":30.2992,"la2":30.254,"lo1":-89.0895,"lo2":-89.0443,"dy":0.0025,"dx":0.0025,"nx":19,"ny":19,"refTime":"2026-03-12T03:00:00:Z","depth":0,"parameterNumber":3,"parameterNumberName":"V-component_of_WINDS"},"data":[0,0,0,6.4976,6.4982,6.5292,6.5293,6.5677,6.568,0,0,0,0,0,0,0,0,0,0,0,6.4872,6.4874,6.4975,6.4982,6.5292,6.5293,6.5676,6.568,0,0,0,0,0,0,0,0,0,0,0,6.487,6.4873,6.4876,6.4983,6.5292,6.5293,6.5675,6.5447,0,0,0,0,0,0,0,0,0,0,6.5149,6.504,6.4872,6.4876,6.4985,6.5291,6.5294,6.5437,6.5462,6.553,0,6.5583,0,6.5637,6.5705,6.5706,0,0,0,6.4993,6.5019,6.5113,6.4876,6.4988,6.5291,6.5155,6.5451,6.5479,6.5562,6.5588,6.5603,6.5643,6.5707,6.5709,6.6055,6.6056,0,0,6.4976,6.4922,6.5093,6.5131,6.5077,6.5145,6.5165,6.5468,6.5495,6.559,6.5612,6.565,6.5709,6.5712,6.6054,6.6055,0,0,0,6.4919,6.4909,6.4997,6.5114,6.5171,6.5154,6.5176,6.5481,6.5514,6.5617,6.5654,6.5711,6.5716,6.6053,6.6055,6.6057,0,0,0,6.491,6.4877,6.4988,6.4959,6.5165,6.5329,6.5182,6.5493,6.5529,6.5652,6.5712,6.5719,6.6052,6.6054,6.6054,6.6068,0,0,0,6.4856,6.4871,6.4911,6.4955,6.5086,6.5325,6.5376,6.5502,6.5551,6.5706,6.572,6.6051,6.6054,6.6052,6.6064,6.6143,0,0,0,6.4784,6.491,6.491,6.5066,6.5083,6.5322,6.5374,6.5557,6.569,6.5713,6.6052,6.6055,6.6051,6.6062,6.614,6.62,6.6219,0,0,6.4914,6.4924,6.502,6.5029,6.5254,6.5279,6.5507,6.5682,6.5749,6.595,6.596,6.6055,6.6064,6.6142,6.6346,6.6361,0,0,0,6.5044,6.5112,6.5184,6.5305,6.5439,6.5556,6.5701,6.5766,6.5939,6.584,6.6106,6.6113,6.6162,6.6193,6.6206,6.6252,6.6066,6.6066,6.6066,6.5152,6.5226,6.5391,6.5503,6.5621,6.5768,6.5872,6.5986,6.6029,6.6091,6.6151,6.6265,6.63,6.631,6.6356,6.6188,6.6188,6.6189,6.6189,6.5351,6.546,6.5511,6.5689,6.5768,6.5921,6.6069,6.6094,6.625,6.6226,6.6273,6.624,6.6323,6.6369,6.619,6.6189,6.6189,6.6189,6.6189,6.5431,6.5496,6.557,6.5753,6.5887,6.5998,6.6143,6.6212,6.6278,6.6323,6.6396,6.6396,6.6406,6.6353,6.6353,6.6353,6.6354,6.6354,6.6354,6.5485,6.5568,6.5681,6.5832,6.5919,6.6042,6.6191,6.6281,6.6398,6.6437,6.6438,6.6476,6.6316,6.6275,6.6361,6.636,6.6359,6.6358,6.6358,6.5661,6.5631,6.5804,6.5891,6.6075,6.6204,6.6288,6.6464,6.6548,6.6618,6.6647,6.6517,6.6534,6.6525,6.6491,6.6628,6.6628,6.6628,6.6628,6.5729,6.5743,6.5935,6.6069,6.6209,6.6302,6.65,6.6617,6.6736,6.6793,6.6783,6.6745,6.6731,6.6757,6.6742,6.6713,6.6903,6.6903,6.6903,6.5842,6.5872,6.6025,6.6135,6.6283,6.6411,6.6599,6.6756,6.6884,6.6916,6.684,6.6829,6.6767,6.6743,6.6773,6.6749,6.6696,0,0]}]]